Time,TemperatureF,DewpointF,PressureIn,WindDirection,WindDirectionDegrees,WindSpeedMPH,WindSpeedGustMPH,Humidity,HourlyPrecipIn,Conditions,Clouds,dailyrainin,SolarRadiationWatts/m^2,SoftwareType,DateUTC
2013-03-21 00:03:00,42.0,26.0,-100.00,SW,218,4.0,10.0,52,0.00,,,0.00,0.000000,,2013-03-21 04:03:00,
2013-03-21 00:13:00,42.0,26.0,-100.00,SW,218,4.0,10.0,52,0.00,,,0.00,0.000000,,2013-03-21 04:13:00,
2013-03-21 00:23:00,42.0,26.0,-100.00,SW,218,4.0,10.0,52,0.00,,,0.00,0.000000,,2013-03-21 04:23:00,
2013-03-21 00:53:00,40.0,26.0,-100.00,South,171,1.0,8.0,58,0.00,,,0.00,0.000000,,2013-03-21 04:53:00,
2013-03-21 01:03:00,40.0,26.0,-100.00,South,171,1.0,8.0,58,0.00,,,0.00,0.000000,,2013-03-21 05:03:00,
2013-03-21 01:13:00,40.0,26.0,-100.00,South,171,1.0,8.0,58,0.00,,,0.00,0.000000,,2013-03-21 05:13:00,
2013-03-21 01:22:00,40.0,26.0,-100.00,South,171,1.0,8.0,58,0.00,,,0.00,0.000000,,2013-03-21 05:22:00,
2013-03-21 01:52:00,40.0,29.0,-100.00,SSE,151,1.0,7.0,64,0.00,,,0.00,0.000000,,2013-03-21 05:52:00,
2013-03-21 02:03:00,40.0,29.0,-100.00,SSE,151,1.0,7.0,64,0.00,,,0.00,0.000000,,2013-03-21 06:03:00,
2013-03-21 02:12:00,40.0,29.0,-100.00,SSE,151,1.0,7.0,64,0.00,,,0.00,0.000000,,2013-03-21 06:12:00,
2013-03-21 02:22:00,40.0,29.0,-100.00,SSE,151,1.0,7.0,64,0.00,,,0.00,0.000000,,2013-03-21 06:22:00,
2013-03-21 02:52:00,36.0,26.0,-100.00,SSW,212,1.0,3.0,67,0.00,,,0.00,0.000000,,2013-03-21 06:52:00,
2013-03-21 03:02:00,36.0,26.0,-100.00,SSW,212,1.0,3.0,67,0.00,,,0.00,0.000000,,2013-03-21 07:02:00,
2013-03-21 03:13:00,36.0,26.0,-100.00,SSW,212,1.0,3.0,67,0.00,,,0.00,0.000000,,2013-03-21 07:13:00,
2013-03-21 03:22:00,36.0,26.0,-100.00,SSW,212,1.0,3.0,67,0.00,,,0.00,0.000000,,2013-03-21 07:22:00,
2013-03-21 03:53:00,39.0,28.0,-100.00,NNW,336,3.0,9.0,65,0.00,,,0.00,0.000000,,2013-03-21 07:53:00,
2013-03-21 04:02:00,39.0,28.0,-100.00,NNW,336,3.0,9.0,65,0.00,,,0.00,0.000000,,2013-03-21 08:02:00,
2013-03-21 04:13:00,39.0,28.0,-100.00,NNW,336,3.0,9.0,65,0.00,,,0.00,0.000000,,2013-03-21 08:13:00,
2013-03-21 04:23:00,39.0,28.0,-100.00,NNW,336,3.0,9.0,65,0.00,,,0.00,0.000000,,2013-03-21 08:23:00,
2013-03-21 04:52:00,39.0,29.0,-100.00,North,358,8.0,17.0,66,0.00,,,0.00,0.000000,,2013-03-21 08:52:00,
2013-03-21 05:02:00,39.0,29.0,-100.00,North,358,8.0,17.0,66,0.00,,,0.00,0.000000,,2013-03-21 09:02:00,
2013-03-21 05:11:00,39.0,29.0,-100.00,North,358,8.0,17.0,66,0.00,,,0.00,0.000000,,2013-03-21 09:11:00,
2013-03-21 05:22:00,39.0,29.0,-100.00,North,358,8.0,17.0,66,0.00,,,0.00,0.000000,,2013-03-21 09:22:00,
2013-03-21 05:53:00,37.0,28.0,-100.00,North,355,10.0,20.0,69,0.00,,,0.00,0.000000,,2013-03-21 09:53:00,
2013-03-21 06:03:00,37.0,28.0,-100.00,North,355,10.0,20.0,69,0.00,,,0.00,0.000000,,2013-03-21 10:03:00,
2013-03-21 06:12:00,37.0,28.0,-100.00,North,355,10.0,20.0,69,0.00,,,0.00,0.000000,,2013-03-21 10:12:00,
2013-03-21 06:23:00,37.0,28.0,-100.00,North,355,10.0,20.0,69,0.00,,,0.00,0.000000,,2013-03-21 10:23:00,
2013-03-21 06:53:00,36.0,28.0,-100.00,North,355,13.0,25.0,72,0.00,,,0.00,0.000000,,2013-03-21 10:53:00,
2013-03-21 07:03:00,36.0,28.0,-100.00,North,355,13.0,25.0,72,0.00,,,0.00,0.000000,,2013-03-21 11:03:00,
2013-03-21 07:13:00,36.0,28.0,-100.00,North,355,13.0,25.0,72,0.00,,,0.00,0.000000,,2013-03-21 11:13:00,
2013-03-21 07:23:00,36.0,28.0,-100.00,North,355,13.0,25.0,72,0.00,,,0.00,0.000000,,2013-03-21 11:23:00,
2013-03-21 07:53:00,35.0,25.0,-100.00,North,355,15.0,26.0,67,0.00,,,0.00,4.000000,,2013-03-21 11:53:00,
2013-03-21 08:03:00,35.0,25.0,-100.00,North,355,15.0,26.0,67,0.00,,,0.00,4.000000,,2013-03-21 12:03:00,
2013-03-21 08:13:00,35.0,25.0,-100.00,North,355,15.0,26.0,67,0.00,,,0.00,4.000000,,2013-03-21 12:13:00,
2013-03-21 08:22:00,35.0,25.0,-100.00,North,355,15.0,26.0,67,0.00,,,0.00,4.000000,,2013-03-21 12:22:00,
2013-03-21 08:53:00,35.0,26.0,-100.00,North,357,13.0,27.0,68,0.00,,,0.00,51.000000,,2013-03-21 12:53:00,
2013-03-21 09:03:00,35.0,26.0,-100.00,North,357,13.0,27.0,68,0.00,,,0.00,51.000000,,2013-03-21 13:03:00,
2013-03-21 09:12:00,35.0,26.0,-100.00,North,357,13.0,27.0,68,0.00,,,0.00,51.000000,,2013-03-21 13:12:00,
2013-03-21 09:22:00,35.0,26.0,-100.00,North,357,13.0,27.0,68,0.00,,,0.00,51.000000,,2013-03-21 13:22:00,
2013-03-21 09:53:00,35.0,25.0,-100.00,North,349,0.0,23.0,67,0.00,,,0.00,80.000000,,2013-03-21 13:53:00,
2013-03-21 10:02:00,35.0,25.0,-100.00,North,349,0.0,23.0,67,0.00,,,0.00,80.000000,,2013-03-21 14:02:00,
2013-03-21 10:12:00,35.0,25.0,-100.00,North,349,0.0,23.0,67,0.00,,,0.00,80.000000,,2013-03-21 14:12:00,
2013-03-21 10:22:00,35.0,25.0,-100.00,North,349,0.0,23.0,67,0.00,,,0.00,80.000000,,2013-03-21 14:22:00,
2013-03-21 10:52:00,32.0,28.0,-100.00,NNW,333,0.0,0.0,85,0.00,,,0.00,68.000000,,2013-03-21 14:52:00,
2013-03-21 11:04:00,32.0,28.0,-100.00,NNW,333,0.0,0.0,85,0.00,,,0.00,68.000000,,2013-03-21 15:04:00,
2013-03-21 11:12:00,32.0,28.0,-100.00,NNW,333,0.0,0.0,85,0.00,,,0.00,68.000000,,2013-03-21 15:12:00,
2013-03-21 11:22:00,32.0,28.0,-100.00,NNW,333,0.0,0.0,85,0.00,,,0.00,68.000000,,2013-03-21 15:22:00,
2013-03-21 11:53:00,32.0,31.0,-100.00,NNW,335,0.0,0.0,97,0.01,,,0.01,125.000000,,2013-03-21 15:53:00,
2013-03-21 12:03:00,32.0,31.0,-100.00,NNW,335,0.0,0.0,97,0.01,,,0.01,125.000000,,2013-03-21 16:03:00,
2013-03-21 12:12:00,32.0,31.0,-100.00,NNW,335,0.0,0.0,97,0.01,,,0.01,125.000000,,2013-03-21 16:12:00,
2013-03-21 12:23:00,32.0,31.0,-100.00,NNW,335,0.0,0.0,97,0.01,,,0.01,125.000000,,2013-03-21 16:23:00,
2013-03-21 12:53:00,30.0,29.0,-100.00,NW,319,0.0,0.0,98,0.00,,,0.01,130.000000,,2013-03-21 16:53:00,
2013-03-21 13:03:00,30.0,29.0,-100.00,NW,319,0.0,0.0,98,0.00,,,0.01,130.000000,,2013-03-21 17:03:00,
2013-03-21 13:12:00,30.0,29.0,-100.00,NW,319,0.0,0.0,98,0.00,,,0.01,130.000000,,2013-03-21 17:12:00,
2013-03-21 13:23:00,30.0,29.0,-100.00,NW,319,0.0,0.0,98,0.00,,,0.01,130.000000,,2013-03-21 17:23:00,
2013-03-21 13:53:00,33.0,32.0,-100.00,North,356,0.0,0.0,98,0.07,,,0.08,270.000000,,2013-03-21 17:53:00,
2013-03-21 14:02:00,33.0,32.0,-100.00,North,356,0.0,0.0,98,0.07,,,0.08,270.000000,,2013-03-21 18:02:00,
2013-03-21 14:12:00,33.0,32.0,-100.00,North,356,0.0,0.0,98,0.07,,,0.08,270.000000,,2013-03-21 18:12:00,
2013-03-21 14:23:00,33.0,32.0,-100.00,North,356,0.0,0.0,98,0.07,,,0.08,270.000000,,2013-03-21 18:23:00,
2013-03-21 14:52:00,36.0,29.0,-100.00,NNW,348,0.0,0.0,75,0.00,,,0.08,334.000000,,2013-03-21 18:52:00,
2013-03-21 15:02:00,36.0,29.0,-100.00,NNW,348,0.0,0.0,75,0.00,,,0.08,334.000000,,2013-03-21 19:02:00,
2013-03-21 15:12:00,36.0,29.0,-100.00,NNW,348,0.0,0.0,75,0.00,,,0.08,334.000000,,2013-03-21 19:12:00,
2013-03-21 15:22:00,36.0,29.0,-100.00,NNW,348,0.0,0.0,75,0.00,,,0.08,334.000000,,2013-03-21 19:22:00,
2013-03-21 15:53:00,37.0,25.0,-100.00,NW,312,0.0,0.0,61,0.00,,,0.08,370.000000,,2013-03-21 19:53:00,
2013-03-21 16:02:00,37.0,25.0,-100.00,NW,312,0.0,0.0,61,0.00,,,0.08,370.000000,,2013-03-21 20:02:00,
2013-03-21 16:13:00,37.0,25.0,-100.00,NW,312,0.0,0.0,61,0.00,,,0.08,370.000000,,2013-03-21 20:13:00,
2013-03-21 16:23:00,37.0,25.0,-100.00,NW,312,0.0,0.0,61,0.00,,,0.08,370.000000,,2013-03-21 20:23:00,
2013-03-21 16:53:00,37.0,23.0,-100.00,NW,321,0.0,0.0,57,0.00,,,0.08,260.000000,,2013-03-21 20:53:00,
2013-03-21 17:03:00,37.0,23.0,-100.00,NW,321,0.0,0.0,57,0.00,,,0.08,260.000000,,2013-03-21 21:03:00,
2013-03-21 17:12:00,37.0,23.0,-100.00,NW,321,0.0,0.0,57,0.00,,,0.08,260.000000,,2013-03-21 21:12:00,
2013-03-21 17:23:00,37.0,23.0,-100.00,NW,321,0.0,0.0,57,0.00,,,0.08,260.000000,,2013-03-21 21:23:00,
2013-03-21 17:53:00,39.0,19.0,-100.00,NW,316,0.0,0.0,44,0.00,,,0.08,326.000000,,2013-03-21 21:53:00,
2013-03-21 18:03:00,39.0,19.0,-100.00,NW,316,0.0,0.0,44,0.00,,,0.08,326.000000,,2013-03-21 22:03:00,
2013-03-21 18:13:00,39.0,19.0,-100.00,NW,316,0.0,0.0,44,0.00,,,0.08,326.000000,,2013-03-21 22:13:00,
2013-03-21 18:23:00,39.0,19.0,-100.00,NW,316,0.0,0.0,44,0.00,,,0.08,326.000000,,2013-03-21 22:23:00,
2013-03-21 18:53:00,35.0,19.0,-100.00,WNW,288,0.0,0.0,52,0.00,,,0.08,178.000000,,2013-03-21 22:53:00,
2013-03-21 19:02:00,35.0,19.0,-100.00,WNW,288,0.0,0.0,52,0.00,,,0.08,178.000000,,2013-03-21 23:02:00,
2013-03-21 19:12:00,35.0,19.0,-100.00,WNW,288,0.0,0.0,52,0.00,,,0.08,178.000000,,2013-03-21 23:12:00,
2013-03-21 19:22:00,35.0,19.0,-100.00,WNW,288,0.0,0.0,52,0.00,,,0.08,178.000000,,2013-03-21 23:22:00,
2013-03-21 19:53:00,34.0,16.0,-100.00,WNW,296,0.0,0.0,47,0.00,,,0.08,20.000000,,2013-03-21 23:53:00,
2013-03-21 20:03:00,34.0,16.0,-100.00,WNW,296,0.0,0.0,47,0.00,,,0.08,20.000000,,2013-03-22 00:03:00,
2013-03-21 20:13:00,34.0,16.0,-100.00,WNW,296,0.0,0.0,47,0.00,,,0.08,20.000000,,2013-03-22 00:13:00,
2013-03-21 20:22:00,34.0,16.0,-100.00,WNW,296,0.0,0.0,47,0.00,,,0.08,20.000000,,2013-03-22 00:22:00,
2013-03-21 20:52:00,34.0,12.0,-100.00,WNW,291,0.0,0.0,39,0.00,,,0.08,0.000000,,2013-03-22 00:52:00,
2013-03-21 21:03:00,34.0,12.0,-100.00,WNW,291,0.0,0.0,39,0.00,,,0.08,0.000000,,2013-03-22 01:03:00,
2013-03-21 21:12:00,34.0,12.0,-100.00,WNW,291,0.0,0.0,39,0.00,,,0.08,0.000000,,2013-03-22 01:12:00,
2013-03-21 21:22:00,34.0,12.0,-100.00,WNW,291,0.0,0.0,39,0.00,,,0.08,0.000000,,2013-03-22 01:22:00,
2013-03-21 21:53:00,32.0,12.0,-100.00,WNW,291,0.0,0.0,43,0.00,,,0.08,0.000000,,2013-03-22 01:53:00,
2013-03-21 22:03:00,32.0,12.0,-100.00,WNW,291,0.0,0.0,43,0.00,,,0.08,0.000000,,2013-03-22 02:03:00,
2013-03-21 22:12:00,32.0,12.0,-100.00,WNW,291,0.0,0.0,43,0.00,,,0.08,0.000000,,2013-03-22 02:12:00,
2013-03-21 22:22:00,32.0,12.0,-100.00,WNW,291,0.0,0.0,43,0.00,,,0.08,0.000000,,2013-03-22 02:22:00,
2013-03-21 22:53:00,31.0,13.0,-100.00,WNW,294,0.0,0.0,46,0.00,,,0.08,0.000000,,2013-03-22 02:53:00,
2013-03-21 23:02:00,31.0,13.0,-100.00,WNW,294,0.0,0.0,46,0.00,,,0.08,0.000000,,2013-03-22 03:02:00,
2013-03-21 23:12:00,31.0,13.0,-100.00,WNW,294,0.0,0.0,46,0.00,,,0.08,0.000000,,2013-03-22 03:12:00,
2013-03-21 23:22:00,31.0,13.0,-100.00,WNW,294,0.0,0.0,46,0.00,,,0.08,0.000000,,2013-03-22 03:22:00,
2013-03-21 23:53:00,30.0,12.0,-100.00,WNW,295,0.0,0.0,46,0.00,,,0.08,0.000000,,2013-03-22 03:53:00,